Location: Andrest
(43.3200°N, 0.0641°E)
Time: 05:13:06
(UTC+00:00)

SL-16 R/B - Pass Details

Date: 01 December 2020
Orbit: 841 x 849 km, 71.0° (Epoch: 27 January)

Event Time Altitude Azimuth Distance (km) Brightness Sun altitude
Rises 16:48:29 0° 198° (SSW) 3,382 6.1 -4.6°
Reaches altitude 10° 16:50:55 10° 197° (SSW) 2,451 5.3 -5.0°
Maximum altitude 16:56:32 78° 113° (ESE) 863 2.2 -5.9°
Drops below altitude 10° 17:02:11 10° 27° (NNE) 2,466 4.2 -6.9°
Enters shadow 17:04:35 - 27° (NNE) 3,381 4.9 -7.3°
